Погода в Славгороде

Хотите узнать прогноз погоды в Славгороде? Тогда Вам сюда: Погода в Славгороде

Поиск расширенной информации на нашем сайте:

Полезная информация:

Новости сайта



02.01.2020
Опубликован Долгосрочный прогноз погоды по городам России и ближнего зарубежья на январь 2020 года.
Карты: Прогноз на январь и февраль 2020 года, Сравнение прогнозируемой аномалии приземной температуры воздуха на январь 2020 года по разным моделям.




Погода в Славгороде - сегодня

Время (UTC), дата Ветер
(°,м/с) 
Видим.   Явления Облачность Т
(°С)
Тd
(°С)
f(%) Тe
(°С)
Pmin
(гПа)
dP
(гПа)
Po
(мм)
O2
(г/м3)
Тmin Tmax R s Состояние
почвы
12 22.10.21 260 (З) 10-15{19}  20000 м    6/6 600 м 
[Sc]
+10.5 -0.1 48 +8  1004.6  2.2  738  286           
15 22.10.21 240 (ЮЗ) 5{16}  20000 м    4/3 600 м верхняя 
[Sc|Ci sp]
+8.4 -0.1 55 +7  1005.9  1.1  739  289           
18 22.10.21 220 (ЮЗ) 4{11}  20000 м    9/6 600 м средняя 
[Sc|Ac und]
+7.7 -0.5 56 +6  1006.9  0.9  740  290    +12.4       
21 22.10.21 220 (ЮЗ) 20000 м    9/9 600 м 
[Sc]
+7.2 -0.5 58 +6  1006.3  -0.6  739  290           
00 23.10.21 200 (Ю) 20000 м    ясно 
+4.7 -0.5 69 +3  1005.8  -0.7  739  293           
03 23.10.21 220 (ЮЗ) 20000 м    ясно 
+4 -1.2 69 +2  1005.4  -0.4  739  293           
06 23.10.21 220 (ЮЗ) 20000 м    6/6 600 м 
[Sc]
+4.5 -0.3 71 +2  1007.1  1.7  740  293  +3.4         
09 23.10.21 240 (ЮЗ) 6-10{10}  20000 м    9/9 600 м 
[Sc]
+7.1 +2.4 72 +5  1009  2.1  741  291           
12 23.10.21 250 (З) 5{16}  20000 м  {ливн. осадки}  8/8 600 м кучево-дожд. 
[Cb calv]
+7.2 +3.3 76 +5  1010.8  1.7  743  291           
15 23.10.21 240 (ЮЗ) 5{11}  20000 м    4/4 600 м 
[Sc]
+5.9 +1.4 73 +4  1012.5  1.6  744  293           
18 23.10.21 240 (ЮЗ) 20000 м    3/3 600 м 
[Sc]
+4 +2.2 88 +2  1014.5  1.8  745  296    +8.1     
21 23.10.21 260 (З) 20000 м    9/9 600 м 
[Sc]
+4.9 +3.1 88 +3  1015.2  0.8  746  295           
00 24.10.21 280 (З) 20000 м    9/9 600 м 
[Sc]
+5.4 +2.6 82 +3  1016.7  1.5  747  295           
03 24.10.21 290 (З) 4{11}  20000 м  в посл. час ливневой дождь  9/9 600 м 
[Sc]
+3.4 +1.9 90 +1  1018.6  1.7  748  297      0.6     
06 24.10.21 310 (СЗ) 10 км  слаб. ливневой дождь  10/10 600 м кучево-дожд. 
[Cb cap]
+3.7 +2.2 90 +2  1021  2.3  750  298  +3.1    0.6     
09 24.10.21 320 (СЗ) 20000 м  в посл. час ливневой дождь  9/9 600 м кучево-дожд. 
[Cb calv]
+4.9 +0.7 74 +3  1023.5  2.6  752  297           
12 24.10.21 320 (СЗ) 7{12}  20000 м  {ливн. осадки}  9/9 600 м кучево-дожд. 
[Cb calv]
+4.2 -1.4 67 +1  1025.8  2.2  754  299           
15 24.10.21 320 (СЗ) 4{13}  20000 м    8/4 600 м средняя 
[Sc|Ac und]
+2.6 -3.3 65 +1  1027.9  1.9  755  302           
18 24.10.21 290 (З) 20000 м    9/0 средняя 
[Ac und]
+1.7 -3 71 1029.4  1.4  756  303    +5.2  0.0     
21 24.10.21 280 (З) 20000 м    9/0 средняя 
[Ac und]
-0.2 -3.1 81 -1  1030.6  757  306           
00 25.10.21 310 (СЗ) 20000 м    ясно 
-1.7 -3.3 89 -3  1031.7  758  308           
03 25.10.21 270 (З) 20000 м    ясно 
-3.2 -4 94 -3  1032.6  0.7  758  310           
06 25.10.21 220 (ЮЗ) 20000 м    3/0 верхняя 
[Ci fib]
-2.6 -3.6 93 -2  1033.3  0.8  759  309  -3.6         
09 25.10.21 220 (ЮЗ) 20000 м    ясно 
+4.1 -0.7 71 +4  1033.1  0.3  759  301           
12 25.10.21 210 (ЮЗ) 20000 м    ясно 
+6.6 -1.1 58 +6  1031.6  -1.2  758  298           
Время (UTC), дата Ветер
(°,м/с) 
Видим.   Явления Облачность Т
(°С)
Тd
(°С)
f(%) Тe
(°С)
Pmin
(гПа)
dP
(гПа)
Po
(мм)
O2
(г/м3)
Тmin Tmax R s Состояние
почвы

Для получения пояснительной информации подведите курсор к названию столбца.

ПОГОДА в Славгороде - архив

Всё, что Вы хотите узнать о погоде в Славгороде - удобно и подробно!

Выберите нужную дату (начиная с 1 января 2019* года) и нажмите кнопку "Найти".
Будут отображены архивные сводки погоды по пункту Славгород, начиная с указанной даты.


Отображать данные в формате CSV (для использования в таблицах Excel)


Внимание! Наш архив погоды предназначен исключительно для личного некоммерческого использования в познавательных целях. Если Вам необходимы официальные справки о состоянии погоды (для производственных, юридических, коммерческих и т.п. целей), обращайтесь в органы Росгидромета.

*Примечание: данная дата относится к архиву по метеостанциям СССР (Россия, СНГ, Балтия).
Архив по метеостанциям Зарубежной Европы и Азии (кроме Китая) хранится 10 дней, по другим регионам земного шара (Китай, Африка, Америка, Австралия, Океания) - 1 день.

Славгород - район местоположения метеостанции


Название, широта, долгота, высота метеостанции:
Славгород 53.4°ш. 31°д. 170 м над ур. моря [Беларусь]

Дополнительная информация

В oтличие oт бoльшинства пoгoдных сайтoв мы публикуем пoдрoбную метеoинфoрмацию в детальнoм прoфессиoнальнoм фoрмате.

Характеристики температуры и влажнoсти вoздуха измеряются на высoте 2 м в тени вдали oт зданий и деревьев.
Скoрoсть ветра измеряется на высoте 10 м (на урoвне рoста челoвека скoрoсть ветра ниже в 1.5-2 раза). Если метеoстанция нахoдится в гoрoде или в лесу, тo скoрoсть ветра занижена на 2-4 м/с пo сравнению с oткрытым местoм. Скoрoсть ветра над акватoриями крупных рек и oзёр, а также на вершинах хoлмoв на 2-5 м/с выше, чем в oбычных услoвиях.
Атмoсфернoе давление в разных тoчках местнoсти мoжет значительнo oтличаться oт давления на метеoстанции, в зависимoсти oт услoвий рельефа (при пoдъёме на 10 м давление пoнижается примернo на 1 мм рт.ст.).